Fort Mitchell, AL

2:43 AM CST on January 22, 2017 (GMT -0600)
Lawson Army Air Field

Weather History for KLSF - July, 2013

Change the Weather History Date:

Saturday, July 13, 2013

  Actual Average Record
Temperature  
Mean Temperature 76 °F -  
Max Temperature 86 °F 89 °F 97 °F (2015)
Min Temperature 66 °F 68 °F 66 °F (2007)
Cooling Degree Days 11    
Growing Degree Days 26 (Base 50)    
Moisture  
Dew Point 71 °F    
Average Humidity 86    
Maximum Humidity 100    
Minimum Humidity 69    
Precipitation  
Precipitation 0.34 in - - ()
Sea Level Pressure  
Sea Level Pressure 29.97 in    
Wind  
Wind Speed 4 mph (ESE)    
Max Wind Speed 24 mph    
Max Gust Speed 33 mph    
Visibility 10 miles    
Events Rain , Thunderstorm    
Averages and records for this station are not official NWS values.
T = Trace of Precipitation, MM = Missing Value Source: NWS Daily Summary

Daily Weather History Graph

Daily Weather History Graph

Search for Another Location

Airport or City:

Trip Planner

Search our weather history database for the weather conditions in past years. The results will help you decide how hot, cold, wet, or windy it might be!

Date:

Astronomy

Jul. 13, 2013 Rise Set
Actual Time 6:42 AM EDT 8:48 PM EDT
Civil Twilight 6:14 AM EDT 9:16 PM EDT
Nautical Twilight 5:40 AM EDT 9:50 PM EDT
Astronomical Twilight 5:04 AM EDT 10:26 PM EDT
Moon 11:37 AM EDT (7/13) 11:51 PM EDT (7/13)
Length of Visible Light 15h 01m
Length of Day
14h 05m
Waxing Crescent, 25% of the Moon is Illuminated
Jul 13
Waxing Crescent
Jul 15
First Quarter
Jul 22
Full
Jul 29
Last Quarter
Aug 6
New

Hourly Weather History & Observations

Time (EDT) Temp. Heat Index Dew Point Humidity Pressure Visibility Wind Dir Wind Speed Gust Speed Precip Events Conditions
12:58 AM 69.4 °F - 69.1 °F 99% 29.94 in 10.0 mi ESE 3.5 mph - N/A   Clear
1:14 AM 69.8 °F - 68.0 °F 94% 29.93 in 10.0 mi NE 1.2 mph - N/A   Light Drizzle
1:20 AM 69.8 °F - 68.0 °F 94% 29.93 in 10.0 mi NNE 1.2 mph - N/A   Clear
1:58 AM 68.5 °F - 68.4 °F 99% 29.94 in 10.0 mi WNW 1.2 mph - 0.00 in   Clear
2:33 AM 69.8 °F - 68.0 °F 94% 29.95 in 10.0 mi East 3.5 mph - N/A   Mostly Cloudy
2:58 AM 69.4 °F - 69.3 °F 99% 29.96 in 10.0 mi Calm Calm - N/A   Mostly Cloudy
3:08 AM 69.8 °F - 69.8 °F 100% 29.94 in 10.0 mi NNW 3.5 mph - N/A   Mostly Cloudy
3:13 AM 69.8 °F - 69.8 °F 100% 29.94 in 10.0 mi NNE 1.2 mph - N/A   Scattered Clouds
3:58 AM 68.2 °F - 67.8 °F 99% 29.91 in 10.0 mi SSE 4.6 mph - N/A   Clear
4:58 AM 67.8 °F - 67.6 °F 99% 29.89 in 10.0 mi East 2.3 mph - N/A   Clear
5:18 AM 66.2 °F - 66.2 °F 100% 29.89 in 8.0 mi North 3.5 mph - N/A   Clear
5:33 AM 68.0 °F - 68.0 °F 100% 29.90 in 10.0 mi Calm Calm - N/A   Clear
5:58 AM 67.8 °F - 67.5 °F 99% 29.92 in 10.0 mi East 3.5 mph - N/A   Clear
8:58 AM 72.7 °F - 69.6 °F 90% 29.98 in 10.0 mi ENE 4.6 mph - N/A   Overcast
9:01 AM 73.4 °F - 69.8 °F 88% 29.96 in 10.0 mi NE 1.2 mph - N/A   Light Drizzle
9:14 AM 73.4 °F - 69.8 °F 88% 29.97 in 10.0 mi NE 6.9 mph - N/A   Overcast
9:23 AM 73.4 °F - 69.8 °F 88% 29.97 in 10.0 mi Variable 5.8 mph - N/A   Light Drizzle
9:32 AM 73.4 °F - 69.8 °F 88% 29.98 in 10.0 mi Variable 4.6 mph - N/A   Overcast
9:58 AM 73.9 °F - 70.7 °F 90% 30.00 in 10.0 mi East 6.9 mph - 0.00 in   Overcast
10:48 AM 77.0 °F - 71.6 °F 83% 29.98 in 10.0 mi East 5.8 mph - N/A   Overcast
10:58 AM 77.9 °F - 72.5 °F 83% 29.99 in 10.0 mi ESE 5.8 mph - N/A   Overcast
11:58 AM 77.4 °F - 73.2 °F 87% 30.01 in 10.0 mi South 2.3 mph - N/A   Overcast
12:15 PM 78.8 °F - 73.4 °F 83% 30.00 in 10.0 mi Variable 1.2 mph - N/A   Light Drizzle
12:20 PM 78.8 °F - 73.4 °F 83% 30.00 in 10.0 mi East 3.5 mph - N/A   Overcast
12:45 PM 78.8 °F - 73.4 °F 83% 30.00 in 10.0 mi South 3.5 mph - N/A   Overcast
12:50 PM 78.8 °F - 73.4 °F 83% 30.00 in 10.0 mi South 3.5 mph - N/A   Light Drizzle
12:55 PM 78.8 °F - 73.4 °F 83% 30.00 in 10.0 mi Variable 3.5 mph - N/A   Light Drizzle
12:58 PM 78.8 °F - 73.9 °F 85% 30.01 in 10.0 mi SSW 4.6 mph - 0.00 in   Light Drizzle
12:59 PM 78.8 °F - 73.4 °F 83% 30.00 in 10.0 mi South 4.6 mph - N/A   Overcast
1:04 PM 78.8 °F - 73.4 °F 83% 30.00 in 10.0 mi South 3.5 mph - N/A   Overcast
1:34 PM 80.6 °F 85.4 °F 73.4 °F 79% 29.99 in 10.0 mi SE 5.8 mph - N/A   Overcast
1:39 PM 80.6 °F 85.4 °F 73.4 °F 79% 29.99 in 10.0 mi SE 4.6 mph - N/A   Overcast
1:44 PM 80.6 °F 85.4 °F 73.4 °F 79% 29.99 in 10.0 mi SE 4.6 mph - N/A   Overcast
1:58 PM 80.8 °F 85.8 °F 73.8 °F 79% 29.99 in 10.0 mi SSE 5.8 mph - 0.00 in   Mostly Cloudy
2:13 PM 80.6 °F 85.4 °F 73.4 °F 79% 29.98 in 10.0 mi Variable 2.3 mph - N/A   Mostly Cloudy
2:18 PM 82.4 °F 88.2 °F 73.4 °F 74% 29.98 in 10.0 mi SSE 2.3 mph - N/A   Mostly Cloudy
2:33 PM 82.4 °F 88.2 °F 73.4 °F 74% 29.98 in 10.0 mi SSE 5.8 mph - N/A   Mostly Cloudy
2:58 PM 82.4 °F 88.4 °F 73.6 °F 75% 29.97 in 10.0 mi Variable 4.6 mph - N/A   Mostly Cloudy
3:48 PM 84.2 °F 92.3 °F 75.2 °F 74% 29.95 in 10.0 mi Variable 4.6 mph - N/A   Mostly Cloudy
3:53 PM 84.2 °F 92.3 °F 75.2 °F 74% 29.95 in 10.0 mi SSE 4.6 mph - N/A   Mostly Cloudy
3:58 PM 84.0 °F 91.2 °F 74.3 °F 72% 29.96 in 10.0 mi SSE 4.6 mph - N/A   Mostly Cloudy
4:23 PM 84.2 °F 92.3 °F 75.2 °F 74% 29.94 in 10.0 mi SE 4.6 mph - N/A   Mostly Cloudy
4:33 PM 84.2 °F 92.3 °F 75.2 °F 74% 29.94 in 10.0 mi Variable 2.3 mph - N/A   Mostly Cloudy
4:43 PM 84.2 °F 92.3 °F 75.2 °F 74% 29.94 in 10.0 mi South 3.5 mph - N/A   Mostly Cloudy
4:48 PM 84.2 °F 92.3 °F 75.2 °F 74% 29.95 in 10.0 mi Variable 3.5 mph - N/A   Mostly Cloudy
4:53 PM 86.0 °F 95.1 °F 75.2 °F 70% 29.94 in 10.0 mi Variable 4.6 mph - N/A   Mostly Cloudy
4:58 PM 85.3 °F 94.2 °F 75.2 °F 72% 29.94 in 10.0 mi SSE 4.6 mph - N/A   Mostly Cloudy
5:03 PM 84.2 °F 92.3 °F 75.2 °F 74% 29.95 in 10.0 mi Variable 3.5 mph - N/A   Mostly Cloudy
5:08 PM 86.0 °F 95.1 °F 75.2 °F 70% 29.95 in 10.0 mi SSE 4.6 mph - N/A   Scattered Clouds
5:26 PM 84.2 °F 90.9 °F 73.4 °F 70% 29.99 in 10.0 mi East 16.1 mph 26.5 mph N/A Thunderstorm Mostly Cloudy
5:30 PM 80.6 °F 83.9 °F 69.8 °F 70% 29.99 in 10.0 mi ESE 24.2 mph 32.2 mph N/A Thunderstorm Mostly Cloudy
5:32 PM 78.8 °F - 68.0 °F 69% 30.00 in 10.0 mi East 20.7 mph 32.2 mph N/A Thunderstorm Light Drizzle
5:37 PM 75.2 °F - 68.0 °F 78% 30.01 in 9.0 mi East 23.0 mph 33.4 mph N/A Rain , Thunderstorm Light Thunderstorms and Rain
5:47 PM 71.6 °F - 68.0 °F 88% 30.00 in 2.5 mi ESE 18.4 mph 33.4 mph N/A Rain , Thunderstorm Thunderstorms and Rain
5:52 PM 69.8 °F - 68.0 °F 94% 30.00 in 4.0 mi East 15.0 mph 26.5 mph N/A Rain , Thunderstorm Light Thunderstorms and Rain
5:58 PM 69.6 °F - 67.3 °F 92% 30.00 in 5.0 mi East 13.8 mph 25.3 mph 0.07 in Rain , Thunderstorm Heavy Thunderstorms and Rain
6:03 PM 69.8 °F - 68.0 °F 94% 29.99 in 7.0 mi ESE 12.7 mph 21.9 mph N/A Rain , Thunderstorm Light Thunderstorms and Rain
6:17 PM 69.8 °F - 68.0 °F 94% 29.98 in 5.0 mi ESE 9.2 mph - N/A Rain Light Rain
6:58 PM 69.8 °F - 68.0 °F 94% 29.99 in 10.0 mi North 8.1 mph - 0.12 in Rain Light Rain
7:58 PM 69.8 °F - 69.3 °F 98% 30.00 in 10.0 mi North 3.5 mph - 0.10 in Rain Rain
8:54 PM 69.8 °F - 69.8 °F 100% 29.99 in 10.0 mi WNW 2.3 mph - N/A   Scattered Clouds
8:58 PM 70.3 °F - 70.0 °F 99% 30.00 in 10.0 mi NW 1.2 mph - 0.05 in   Scattered Clouds
9:04 PM 69.8 °F - 69.8 °F 100% 29.99 in 10.0 mi Calm Calm - N/A Rain Light Rain
9:28 PM 69.8 °F - 69.8 °F 100% 29.98 in 10.0 mi SSE 5.8 mph - N/A   Partly Cloudy
11:59 PM 71.6 °F - 71.6 °F 100% 30.03 in 10.0 mi NW 3.5 mph - 0.00 in   Mostly Cloudy